AC5JC-1 Weather Reports


Display with metric or nautical units.
time (UTC)temp
F
wind
direction
speed
MPH
gust
MPH
rain 1hr
in
rain 24hr
in
rain mn
in
humidity
%
barometer
mb
20260506062034 58 39 2.0 6.0 0.00 0.00 0.00 82 1011.0
20260506061618 58 40 1.0 3.0 0.00 0.00 0.00 83 1010.9
20260506061042 58 20 2.0 6.0 0.00 0.00 0.00 83 1010.8
20260506060534 58 40 2.0 2.0 0.00 0.00 0.00 84 1010.6
20260506051034 59 50 2.0 3.0 0.00 0.00 0.00 84 1011.0
20260506050534 59 46 2.0 5.0 0.00 0.00 0.00 84 1011.0
20260506045034 59 53 3.0 6.0 0.00 0.00 0.00 83 1011.1
20260506044534 60 22 3.0 7.0 0.00 0.00 0.00 83 1010.8
20260506044034 60 31 3.0 7.0 0.00 0.00 0.00 83 1010.8
20260506043534 60 28 3.0 6.0 0.00 0.00 0.00 83 1010.7
20260506043034 60 50 2.0 5.0 0.00 0.00 0.00 83 1010.6
20260506042534 60 36 2.0 5.0 0.00 0.00 0.00 83 1010.7
20260506042034 61 30 2.0 6.0 0.00 0.00 0.00 83 1010.7
20260506041639 61 33 2.0 5.0 0.00 0.00 0.00 83 1010.9
20260506041119 61 50 1.0 3.0 0.00 0.00 0.00 82 1010.8
20260506040539 61 39 2.0 5.0 0.00 0.00 0.00 82 1010.7
20260506040055 61 30 3.0 6.0 0.00 0.00 0.00 82 1010.9
20260506035535 62 38 2.0 3.0 0.00 0.00 0.00 82 1010.7
20260506035034 62 26 3.0 7.0 0.00 0.00 0.00 82 1010.8
20260506034534 62 33 3.0 6.0 0.00 0.00 0.00 82 1010.6
20260506034034 62 26 3.0 6.0 0.00 0.00 0.00 82 1010.4
20260506033534 62 38 3.0 6.0 0.00 0.00 0.00 82 1010.6
20260506033035 62 28 4.0 8.0 0.00 0.00 0.00 82 1010.5
20260506032533 63 42 3.0 7.0 0.00 0.00 0.00 82 1010.3
20260506032033 63 44 3.0 6.0 0.00 0.00 0.00 81 1010.0
20260506031532 63 53 3.0 7.0 0.00 0.00 0.00 81 1009.7
20260506031114 63 18 3.0 7.0 0.00 0.00 0.00 80 1009.4
20260506030554 64 30 2.0 5.0 0.00 0.00 0.00 80 1009.5
20260506030035 64 37 2.0 5.0 0.00 0.00 0.00 80 1009.5
20260506025533 64 35 3.0 6.0 0.00 0.00 0.00 80 1009.5
20260506025053 64 21 2.0 6.0 0.00 0.00 0.00 80 1009.5
20260506024534 65 41 2.0 3.0 0.00 0.00 0.00 80 1009.3
20260506024039 65 43 1.0 5.0 0.00 0.00 0.00 79 1009.3
20260506023607 65 28 3.0 7.0 0.00 0.00 0.00 79 1009.1
20260506023034 65 56 3.0 6.0 0.00 0.00 0.00 80 1009.0
20260506022534 65 32 2.0 3.0 0.00 0.00 0.00 80 1009.1
20260506022034 65 32 1.0 3.0 0.00 0.00 0.00 80 1009.0
20260506021614 65 50 2.0 5.0 0.00 0.00 0.00 79 1009.1
20260506021034 65 49 1.0 3.0 0.00 0.00 0.00 79 1008.8
20260506020533 65 64 0.0 2.0 0.00 0.00 0.00 79 1008.7
20260506020035 65 50 1.0 2.0 0.00 0.00 0.00 79 1008.7
20260506015531 66 76 0.0 2.0 0.00 0.00 0.00 79 1008.5
20260506015114 66 47 1.0 2.0 0.00 0.00 0.00 79 1008.3
20260506014554 66 53 2.0 5.0 0.00 0.00 0.00 78 1008.1
20260506014036 66 70 1.0 2.0 0.00 0.00 0.00 78 1007.9
20260506013534 66 40 1.0 2.0 0.00 0.00 0.00 78 1008.0
20260506013034 66 49 2.0 3.0 0.00 0.00 0.00 77 1007.8
20260506012655 67 40 2.0 3.0 0.00 0.00 0.00 77 1007.6
20260506012019 67 32 2.0 5.0 0.00 0.00 0.00 77 1007.7
20260506011603 67 60 2.0 5.0 0.00 0.00 0.00 77 1007.4
20260506011104 67 26 3.0 5.0 0.00 0.00 0.00 77 1007.0
20260506010533 68 54 2.0 3.0 0.00 0.00 0.00 77 1007.2
20260506010034 68 42 1.0 5.0 0.00 0.00 0.00 76 1006.9
20260506005533 68 74 1.0 3.0 0.00 0.00 0.00 76 1006.8
20260506005054 69 58 2.0 6.0 0.00 0.00 0.00 75 1006.5
20260506004524 69 347 2.0 6.0 0.00 0.00 0.00 75 1006.6
20260506004050 69 56 1.0 3.0 0.00 0.00 0.00 75 1006.5
20260506003534 69 33 2.0 7.0 0.00 0.00 0.00 75 1006.7
20260506003035 70 38 3.0 8.0 0.00 0.00 0.00 74 1006.6
20260506002533 70 69 1.0 3.0 0.00 0.00 0.00 74 1006.4
20260506002054 70 17 2.0 5.0 0.00 0.00 0.00 74 1006.3
20260506001619 71 18 2.0 3.0 0.00 0.00 0.00 74 1006.5
20260506001059 71 28 2.0 5.0 0.00 0.00 0.00 74 1006.2
20260506000554 72 8 3.0 6.0 0.00 0.00 0.00 74 1006.3
20260506000053 72 28 2.0 5.0 0.00 0.00 0.00 73 1006.4
20260505235555 73 85 0.0 1.0 0.00 0.00 0.00 73 1006.4
20260505235054 73 53 2.0 5.0 0.00 0.00 0.00 72 1006.3
20260505234534 73 75 1.0 2.0 0.00 0.00 0.00 71 1006.2
20260505234033 74 57 1.0 3.0 0.00 0.00 0.00 71 1006.2
20260505233534 74 75 1.0 3.0 0.00 0.00 0.00 70 1006.2
20260505233034 74 36 1.0 2.0 0.00 0.00 0.00 70 1006.1
20260505232534 75 15 2.0 5.0 0.00 0.00 0.00 69 1006.0
20260505232053 75 42 1.0 3.0 0.00 0.00 0.00 69 1006.1
20260505231619 75 72 2.0 6.0 0.00 0.00 0.00 69 1005.9
20260505231058 75 40 2.0 6.0 0.00 0.00 0.00 68 1006.0
20260505230559 75 337 2.0 9.0 0.00 0.00 0.00 68 1005.9
20260505230034 76 72 2.0 5.0 0.00 0.00 0.00 67 1005.9
20260505225533 76 9 2.0 5.0 0.00 0.00 0.00 67 1005.8
20260505225033 76 21 2.0 3.0 0.00 0.00 0.00 67 1005.8
20260505224523 77 48 2.0 3.0 0.00 0.00 0.00 67 1006.0
20260505224147 77 26 2.0 5.0 0.00 0.00 0.00 65 1005.8
20260505223547 77 33 2.0 6.0 0.00 0.00 0.00 65 1005.5
20260505223034 78 67 1.0 3.0 0.00 0.00 0.00 65 1005.4
20260505222554 78 57 2.0 3.0 0.00 0.00 0.00 65 1005.6
20260505222034 79 46 2.0 6.0 0.00 0.00 0.00 64 1005.5
20260505221533 79 57 1.0 3.0 0.00 0.00 0.00 64 1005.3
20260505221135 79 106 1.0 2.0 0.00 0.00 0.00 64 1005.2
20260505220555 80 42 2.0 6.0 0.00 0.00 0.00 63 1005.3
20260505220115 80 60 1.0 3.0 0.00 0.00 0.00 64 1005.4
20260505215534 80 59 2.0 8.0 0.00 0.00 0.00 63 1005.4
20260505215033 81 40 2.0 5.0 0.00 0.00 0.00 63 1005.3
20260505214534 81 25 2.0 6.0 0.00 0.00 0.00 63 1005.1
20260505214020 82 18 2.0 3.0 0.00 0.00 0.00 63 1005.1
20260505213607 83 45 2.0 3.0 0.00 0.00 0.00 61 1005.3
20260505213033 84 180 2.0 3.0 0.00 0.00 0.00 59 1005.3
20260505212554 85 59 2.0 6.0 0.00 0.00 0.00 55 1005.1
20260505212034 87 52 2.0 5.0 0.00 0.00 0.00 51 1005.2
20260505211533 86 76 1.0 2.0 0.00 0.00 0.00 50 1005.0
20260505211115 86 14 1.0 3.0 0.00 0.00 0.00 51 1005.1
20260505210715 85 55 2.0 5.0 0.00 0.00 0.00 49 1005.1
20260505210035 85 345 1.0 6.0 0.00 0.00 0.00 48 1005.3
20260505205533 85 321 2.0 6.0 0.00 0.00 0.00 48 1005.4
20260505205034 85 41 2.0 3.0 0.00 0.00 0.00 49 1005.3
20260505204533 85 258 3.0 10.0 0.00 0.00 0.00 49 1005.3
20260505204033 85 104 3.0 6.0 0.00 0.00 0.00 49 1005.4
20260505203554 87 274 4.0 10.0 0.00 0.00 0.00 47 1005.3
20260505203033 87 351 3.0 7.0 0.00 0.00 0.00 49 1005.3
20260505202554 90 45 3.0 8.0 0.00 0.00 0.00 49 1005.2
20260505202020 91 191 2.0 3.0 0.00 0.00 0.00 53 1005.0
20260505201603 90 127 1.0 2.0 0.00 0.00 0.00 57 1005.1
20260505201043 90 117 1.0 2.0 0.00 0.00 0.00 58 1005.2
20260505200533 89 117 0.0 1.0 0.00 0.00 0.00 59 1005.2
20260505200034 89 126 1.0 5.0 0.00 0.00 0.00 59 1005.3
20260505195534 89 144 2.0 2.0 0.00 0.00 0.00 59 1005.3
20260505195034 88 130 1.0 2.0 0.00 0.00 0.00 60 1005.3
20260505194533 89 132 1.0 2.0 0.00 0.00 0.00 60 1005.3
20260505194033 89 146 1.0 3.0 0.00 0.00 0.00 59 1005.4
20260505193534 88 123 1.0 2.0 0.00 0.00 0.00 60 1005.3
20260505193028 88 118 1.0 3.0 0.00 0.00 0.00 60 1005.5
20260505192611 89 156 1.0 2.0 0.00 0.00 0.00 60 1005.4
20260505192051 88 158 1.0 3.0 0.00 0.00 0.00 61 1005.4
20260505191535 88 147 1.0 2.0 0.00 0.00 0.00 60 1005.3
20260505191054 88 154 1.0 5.0 0.00 0.00 0.00 61 1005.2
20260505190533 88 166 2.0 3.0 0.00 0.00 0.00 61 1005.3
20260505190054 88 102 1.0 3.0 0.00 0.00 0.00 62 1005.2
20260505185533 88 185 1.0 3.0 0.00 0.00 0.00 62 1005.2
20260505185034 88 100 1.0 2.0 0.00 0.00 0.00 63 1005.3
20260505184555 87 154 1.0 2.0 0.00 0.00 0.00 63 1005.3
20260505184053 86 192 2.0 3.0 0.00 0.00 0.00 62 1005.2
20260505183619 86 157 2.0 3.0 0.00 0.00 0.00 64 1005.2
20260505183059 85 127 1.0 2.0 0.00 0.00 0.00 65 1005.4
20260505182539 84 129 2.0 3.0 0.00 0.00 0.00 66 1005.4
20260505182033 85 134 2.0 3.0 0.00 0.00 0.00 66 1005.6
20260505181554 84 136 1.0 2.0 0.00 0.00 0.00 66 1005.5
20260505181033 84 150 1.0 3.0 0.00 0.00 0.00 65 1005.5
20260505180534 84 150 1.0 3.0 0.00 0.00 0.00 65 1005.5
20260505180021 85 144 1.0 3.0 0.00 0.00 0.00 66 1005.5
20260505175603 84 135 2.0 2.0 0.00 0.00 0.00 65 1005.6
20260505175043 84 177 2.0 6.0 0.00 0.00 0.00 64 1005.6
20260505174535 85 209 2.0 5.0 0.00 0.00 0.00 64 1005.5
20260505174034 85 178 2.0 6.0 0.00 0.00 0.00 64 1005.4
20260505173639 86 166 2.0 3.0 0.00 0.00 0.00 65 1005.4
20260505173059 86 132 1.0 1.0 0.00 0.00 0.00 66 1005.4
20260505172533 85 94 1.0 2.0 0.00 0.00 0.00 67 1005.3
20260505172034 84 211 2.0 5.0 0.00 0.00 0.00 67 1005.3
20260505171533 84 137 2.0 3.0 0.00 0.00 0.00 69 1005.2
20260505171033 83 115 1.0 2.0 0.00 0.00 0.00 71 1005.3
20260505170533 82 157 1.0 2.0 0.00 0.00 0.00 72 1005.3
20260505170033 82 117 1.0 3.0 0.00 0.00 0.00 73 1005.2
20260505165533 81 129 2.0 2.0 0.00 0.00 0.00 74 1005.3
20260505165027 81 136 1.0 2.0 0.00 0.00 0.00 74 1005.5
20260505164555 80 135 1.0 3.0 0.00 0.00 0.00 75 1005.4
20260505164034 80 143 2.0 3.0 0.00 0.00 0.00 75 1005.6
20260505163534 80 133 1.0 2.0 0.00 0.00 0.00 77 1005.4
20260505163055 80 124 1.0 2.0 0.00 0.00 0.00 76 1005.4
20260505162533 80 142 1.0 2.0 0.00 0.00 0.00 77 1005.4
20260505162034 79 111 1.0 3.0 0.00 0.00 0.00 77 1005.4
20260505161534 79 168 1.0 3.0 0.00 0.00 0.00 77 1005.3
20260505161033 79 109 1.0 5.0 0.00 0.00 0.00 78 1005.2
20260505160554 78 150 1.0 2.0 0.00 0.00 0.00 78 1005.2
20260505153028 76 137 1.0 2.0 0.00 0.00 0.00 81 1005.3
20260505152611 75 147 2.0 3.0 0.00 0.00 0.00 82 1005.0
20260505152051 75 171 2.0 3.0 0.00 0.00 0.00 81 1005.1
20260505151535 75 146 2.0 3.0 0.00 0.00 0.00 81 1005.2
20260505151034 76 137 1.0 3.0 0.00 0.00 0.00 80 1005.2
20260505150533 76 160 2.0 3.0 0.00 0.00 0.00 80 1005.1
20260505140533 73 137 2.0 3.0 0.00 0.00 0.00 85 1004.9
20260505130108 70 134 1.0 2.0 0.00 0.00 0.00 89 1004.5
20260505125033 70 110 1.0 3.0 0.00 0.00 0.00 89 1004.6
20260505124534 70 125 1.0 2.0 0.00 0.00 0.00 89 1004.6
20260505124113 70 140 1.0 2.0 0.00 0.00 0.00 89 1004.7
20260505123532 69 141 1.0 2.0 0.00 0.00 0.00 89 1004.4
20260505123115 69 141 2.0 3.0 0.00 0.00 0.00 90 1004.3
20260505122555 69 140 1.0 2.0 0.00 0.00 0.00 90 1004.3
20260505122054 69 125 1.0 2.0 0.00 0.00 0.00 90 1004.2
20260505121534 69 116 1.0 3.0 0.00 0.00 0.00 90 1004.1
20260505121034 69 143 1.0 2.0 0.00 0.00 0.00 90 1004.0
20260505120534 69 134 1.0 2.0 0.00 0.00 0.00 90 1004.0
20260505120041 69 133 1.0 2.0 0.00 0.00 0.00 90 1003.9
20260505115603 69 138 1.0 2.0 0.00 0.00 0.00 90 1004.1
20260505115034 69 135 1.0 2.0 0.00 0.00 0.00 90 1004.1
20260505114534 69 149 1.0 3.0 0.00 0.00 0.00 90 1004.2
20260505114054 69 140 1.0 2.0 0.00 0.00 0.00 90 1004.0
20260505113534 69 145 1.0 2.0 0.00 0.00 0.00 90 1004.0
20260505113033 69 117 2.0 2.0 0.00 0.00 0.00 90 1003.9
20260505112533 69 142 2.0 2.0 0.00 0.00 0.00 91 1003.8
20260505112033 69 146 1.0 2.0 0.00 0.00 0.00 91 1003.8
20260505111534 69 143 1.0 2.0 0.00 0.00 0.00 91 1003.8
20260505111053 69 129 1.0 2.0 0.00 0.00 0.00 91 1003.8
20260505110533 68 147 1.0 3.0 0.00 0.00 0.00 91 1003.8
20260505102108 69 134 1.0 2.0 0.00 0.00 0.00 91 1003.8
20260505101554 69 138 1.0 2.0 0.00 0.00 0.00 91 1003.8
20260505101028 69 129 2.0 3.0 0.00 0.00 0.00 90 1004.0
20260505100611 69 140 1.0 2.0 0.00 0.00 0.00 90 1003.9
20260505100054 69 143 1.0 3.0 0.00 0.00 0.00 90 1003.8
20260505095534 69 148 2.0 3.0 0.00 0.00 0.00 90 1003.7
20260505095028 69 155 1.0 2.0 0.00 0.00 0.00 90 1003.8
20260505094631 69 159 2.0 3.0 0.00 0.00 0.00 90 1003.8
20260505094051 69 152 1.0 2.0 0.00 0.00 0.00 90 1004.1
20260505093552 69 146 2.0 3.0 0.00 0.00 0.00 89 1003.7
20260505093116 69 148 2.0 2.0 0.00 0.00 0.00 89 1003.8
20260505092533 69 146 1.0 2.0 0.00 0.00 0.00 89 1003.8
20260505092034 70 140 1.0 2.0 0.00 0.00 0.00 89 1003.9
20260505091554 70 141 2.0 2.0 0.00 0.00 0.00 88 1003.8
20260505091033 70 156 2.0 2.0 0.00 0.00 0.00 88 1003.8
20260505090534 70 149 2.0 3.0 0.00 0.00 0.00 88 1004.1
20260505090034 70 146 2.0 3.0 0.00 0.00 0.00 88 1004.2
20260505085533 70 157 2.0 2.0 0.00 0.00 0.00 88 1004.2
20260505085034 70 128 1.0 3.0 0.00 0.00 0.00 87 1004.3
20260505084534 70 135 1.0 2.0 0.00 0.00 0.00 87 1004.3
20260505084033 70 151 2.0 3.0 0.00 0.00 0.00 87 1004.2
20260505083534 70 150 2.0 2.0 0.00 0.00 0.00 87 1004.4
20260505083034 70 124 1.0 2.0 0.00 0.00 0.00 86 1004.3
20260505082533 71 141 2.0 3.0 0.00 0.00 0.00 86 1004.3
20260505082208 71 137 2.0 3.0 0.00 0.00 0.00 85 1004.5
20260505081548 71 137 1.0 2.0 0.00 0.00 0.00 85 1004.4
20260505081033 71 147 2.0 3.0 0.00 0.00 0.00 85 1004.3
20260505080533 71 136 2.0 3.0 0.00 0.00 0.00 84 1004.2
20260505080033 71 137 1.0 2.0 0.00 0.00 0.00 84 1004.3
20260505075533 71 151 2.0 2.0 0.00 0.00 0.00 84 1004.3
20260505075033 71 141 1.0 3.0 0.00 0.00 0.00 84 1004.3
20260505074554 71 159 2.0 3.0 0.00 0.00 0.00 84 1004.4
20260505074033 71 145 1.0 3.0 0.00 0.00 0.00 83 1004.4
20260505073553 71 120 2.0 2.0 0.00 0.00 0.00 83 1004.5
20260505073054 71 143 1.0 2.0 0.00 0.00 0.00 83 1004.6
20260505072534 71 159 2.0 2.0 0.00 0.00 0.00 83 1004.6
20260505072020 71 141 2.0 3.0 0.00 0.00 0.00 82 1004.8
20260505071625 72 145 1.0 2.0 0.00 0.00 0.00 82 1004.8
20260505071114 72 155 2.0 3.0 0.00 0.00 0.00 82 1004.9
20260505070533 72 166 2.0 3.0 0.00 0.00 0.00 81 1004.9
20260505070033 72 162 2.0 3.0 0.00 0.00 0.00 81 1005.0
20260505065533 72 143 2.0 5.0 0.00 0.00 0.00 81 1005.1